ICEYE-X6

导读

ICEYE-X6是芬兰ICEYE公司研发的合成孔径雷达(SAR)卫星,于2020年9月28日发射入轨,归入ICEYE商业遥感星座组网。作为微型SAR卫星,它将轻量平台与微型传感器集成,具备全天时、全天候对地观测能力,可提供高分辨率雷达影像。它的入轨进一步扩充了ICEYE星座的重访与成像能力,为全球政府及商业客户提供近实时地理观测数据,服务于灾害监测、资源勘探等多个领域。

Basic Information
目录编号:
46497
目录名称:
ICEYE-X6
国际标识:
2020-068M
轨道中心:
EARTH
卫星名称:
ICEYE-X6
卫星全名:
--
卫星状态:
在轨 (已飞行2168 天)
发射日期:
2020-09-28 UTC
国别 :
(FI)
星等 :
--
Orbit Information
数据来源 国际轨道数据 AOE轨道数据
星历时间 2026-09-05T14:08:47+0800
9小时前
查看轨道信息
2026-09-02T01:00:00+0800
3天前
查看轨道信息
半长轴 6929.997km 6929.988km
偏心率 0.0007243 0.0006848
轨道倾角 98.104° 98.105°
近地点辐角 168.135° 182.435°
升交点赤经 245.801° 242.080°
平近点角 192.004° 49.299°
近地点 546.84km 547.105km
远地点 556.88km 556.597km
周期 95.688分钟 95.688分钟
每日圈数 15.048848 15.048876
Detailed Information
使用方式:
暂无
2D Orbit Map
3D Orbit Map
Orbit Altitude Analysis Chart
Orbit Inclination Analysis Chart
Orbit Comprehensive Analysis Chart
View Comprehensive Chart
Conjunction Data List
Event ID Objects TCA Miss Dist (km) Collision Risk Probability Collision Risk Index (CRI) Action
CDM_260906-014904-649705-215226
ICEYE-X6 (46497)
2026-09-06T
01:49:02+0000
0.627 km
远距离
1.153135E-4 高风险 0.76
CDM_260907-071104-649706-506622
ICEYE-X6 (46497)
2026-09-07T
07:11:34+0000
2.198 km
极远距离
1.685433E-6 低风险 0.4